DLH357 EDDB-EDVK

Flight info

Callsign DLH357
Flight time 0h 38m
Altitude 24000
Route KISUC1N KISUC Z20 MAG Z92 LUXUX
Aircraft A320/M-SDE3FGHIRWY/LB1

Departure

Time 2026-05-07 21:47
Airport Berlin Brandenburg Airport (EDDB)

Arrival

Time 2026-05-07 22:25
Airport Kassel Airport (EDVK)
Time Latitude Longitude Altitude Speed Heading
2026-05-07 21:22 52.36541 13.50496 155 ft 0 kts 70°
2026-05-07 21:37 52.36541 13.50495 154 ft 1 kts 70°
2026-05-07 21:37 52.36533 13.50459 154 ft 4 kts 69°
2026-05-07 21:38 52.36524 13.50418 154 ft 4 kts 79°
2026-05-07 21:38 52.36523 13.50375 154 ft 4 kts 104°
2026-05-07 21:38 52.36534 13.50343 154 ft 2 kts 157°
2026-05-07 21:38 52.36540 13.50339 154 ft 0 kts 159°
2026-05-07 21:40 52.36539 13.50340 154 ft 1 kts 159°
2026-05-07 21:41 52.36522 13.50350 154 ft 4 kts 158°
2026-05-07 21:41 52.36482 13.50376 154 ft 8 kts 159°
2026-05-07 21:41 52.36413 13.50420 154 ft 13 kts 158°
2026-05-07 21:41 52.36315 13.50415 154 ft 17 kts 202°
2026-05-07 21:42 52.36189 13.50402 154 ft 21 kts 160°
2026-05-07 21:42 52.36042 13.50497 154 ft 25 kts 158°
2026-05-07 21:42 52.35872 13.50607 154 ft 28 kts 158°
2026-05-07 21:42 52.35746 13.50532 154 ft 22 kts 246°
2026-05-07 21:43 52.35691 13.50277 154 ft 25 kts 250°
2026-05-07 21:43 52.35621 13.49991 154 ft 29 kts 248°
2026-05-07 21:43 52.35544 13.49674 154 ft 31 kts 248°
2026-05-07 21:43 52.35461 13.49335 154 ft 34 kts 250°
2026-05-07 21:44 52.35377 13.48966 154 ft 36 kts 250°
2026-05-07 21:44 52.35289 13.48583 154 ft 36 kts 249°
2026-05-07 21:44 52.35199 13.48209 154 ft 35 kts 248°
2026-05-07 21:44 52.35112 13.47841 154 ft 34 kts 248°
2026-05-07 21:45 52.35025 13.47478 154 ft 34 kts 249°
2026-05-07 21:45 52.34940 13.47118 154 ft 34 kts 249°
2026-05-07 21:45 52.34863 13.46796 154 ft 22 kts 248°
2026-05-07 21:45 52.34741 13.46746 154 ft 21 kts 161°
2026-05-07 21:46 52.34606 13.46841 154 ft 21 kts 154°
2026-05-07 21:46 52.34596 13.47059 154 ft 27 kts 72°
2026-05-07 21:46 52.34753 13.47725 154 ft 97 kts 69°
2026-05-07 21:46 52.35069 13.49043 154 ft 150 kts 68°
2026-05-07 21:47 52.35494 13.50820 382 ft 172 kts 67°
2026-05-07 21:47 52.35941 13.52610 1139 ft 169 kts 67°
2026-05-07 21:47 52.36396 13.54454 1641 ft 185 kts 67°
2026-05-07 21:47 52.36903 13.56517 1962 ft 205 kts 68°
2026-05-07 21:48 52.37374 13.58816 2298 ft 230 kts 81°
2026-05-07 21:48 52.37367 13.61419 3209 ft 229 kts 93°
2026-05-07 21:48 52.37259 13.64005 3740 ft 227 kts 93°
2026-05-07 21:48 52.37148 13.66567 3973 ft 227 kts 93°
2026-05-07 21:49 52.37035 13.69147 4773 ft 228 kts 93°
2026-05-07 21:49 52.36737 13.71698 5572 ft 233 kts 114°
2026-05-07 21:49 52.35743 13.73790 6361 ft 238 kts 143°
2026-05-07 21:49 52.34245 13.74973 7137 ft 242 kts 159°
2026-05-07 21:50 52.32602 13.75616 7895 ft 246 kts 175°
2026-05-07 21:50 52.30850 13.75398 8398 ft 265 kts 194°
2026-05-07 21:50 52.29056 13.74434 8827 ft 282 kts 199°
2026-05-07 21:50 52.27215 13.73211 9580 ft 289 kts 209°
2026-05-07 21:51 52.25590 13.71260 10339 ft 293 kts 225°
2026-05-07 21:51 52.24293 13.68566 10669 ft 314 kts 242°
2026-05-07 21:51 52.23427 13.65182 10990 ft 331 kts 251°
2026-05-07 21:51 52.22626 13.61616 11651 ft 337 kts 250°
2026-05-07 21:52 52.21804 13.58011 12398 ft 341 kts 250°
2026-05-07 21:52 52.20967 13.54386 13158 ft 343 kts 250°
2026-05-07 21:52 52.20117 13.50731 13907 ft 346 kts 249°
2026-05-07 21:52 52.19335 13.47098 14528 ft 349 kts 256°
2026-05-07 21:53 52.18931 13.43161 15150 ft 351 kts 266°
2026-05-07 21:53 52.18737 13.39180 15774 ft 354 kts 266°
2026-05-07 21:53 52.18535 13.35155 16401 ft 358 kts 266°
2026-05-07 21:53 52.18324 13.31100 17040 ft 360 kts 266°
2026-05-07 21:54 52.18111 13.27021 17672 ft 363 kts 266°
2026-05-07 21:54 52.17892 13.22904 18303 ft 366 kts 266°
2026-05-07 21:54 52.17676 13.18859 18837 ft 368 kts 266°
2026-05-07 21:54 52.17445 13.14591 19367 ft 371 kts 266°
2026-05-07 21:55 52.17218 13.10444 19875 ft 374 kts 266°
2026-05-07 21:55 52.16983 13.06205 20383 ft 377 kts 266°
2026-05-07 21:55 52.16774 13.02454 20818 ft 380 kts 266°
2026-05-07 21:55 52.16534 12.98146 21318 ft 383 kts 266°
2026-05-07 21:56 52.16155 12.93830 21791 ft 387 kts 259°
2026-05-07 21:56 52.15589 12.89791 22245 ft 390 kts 259°
2026-05-07 21:56 52.14982 12.85467 22753 ft 392 kts 258°
2026-05-07 21:56 52.14397 12.81333 23252 ft 394 kts 258°
2026-05-07 21:57 52.13787 12.77034 23695 ft 397 kts 258°
2026-05-07 21:57 52.13159 12.72650 24080 ft 399 kts 258°
2026-05-07 21:57 52.12527 12.68234 24471 ft 402 kts 258°
2026-05-07 21:57 52.11893 12.63794 24855 ft 404 kts 258°
2026-05-07 21:58 52.11258 12.59338 25237 ft 406 kts 258°
2026-05-07 21:58 52.10617 12.54845 25611 ft 408 kts 258°
2026-05-07 21:58 52.09969 12.50337 25974 ft 410 kts 258°
2026-05-07 21:58 52.09316 12.45810 26388 ft 412 kts 258°
2026-05-07 21:59 52.08668 12.41319 26755 ft 414 kts 258°
2026-05-07 21:59 52.08004 12.36753 27100 ft 416 kts 257°
2026-05-07 21:59 52.07345 12.32233 27471 ft 417 kts 257°
2026-05-07 21:59 52.06672 12.27638 27863 ft 418 kts 257°
2026-05-07 22:00 52.05997 12.23035 28229 ft 420 kts 257°
2026-05-07 22:00 52.05327 12.18478 28588 ft 422 kts 257°
2026-05-07 22:00 52.04642 12.13834 28936 ft 424 kts 257°
2026-05-07 22:00 52.03952 12.09180 29271 ft 425 kts 257°
2026-05-07 22:01 52.03259 12.04496 29607 ft 427 kts 257°
2026-05-07 22:01 52.02559 11.99791 29934 ft 429 kts 257°
2026-05-07 22:01 52.01862 11.95134 30224 ft 431 kts 257°
2026-05-07 22:01 52.01153 11.90395 30460 ft 433 kts 257°
2026-05-07 22:02 52.00435 11.85635 30719 ft 435 kts 257°
2026-05-07 22:02 51.99713 11.80858 30966 ft 437 kts 257°
2026-05-07 22:02 51.98980 11.76094 31230 ft 438 kts 256°
2026-05-07 22:02 51.98210 11.71401 31477 ft 432 kts 256°
2026-05-07 22:03 51.97420 11.66818 31546 ft 414 kts 255°
2026-05-07 22:03 51.96643 11.62406 31396 ft 401 kts 255°
2026-05-07 22:03 51.95883 11.58101 31061 ft 394 kts 255°
2026-05-07 22:03 51.95149 11.53911 30660 ft 390 kts 255°
2026-05-07 22:04 51.94490 11.50109 30264 ft 386 kts 255°
2026-05-07 22:04 51.93842 11.46347 29808 ft 383 kts 255°
2026-05-07 22:04 51.93131 11.42206 29278 ft 380 kts 255°
2026-05-07 22:04 51.92426 11.38097 28765 ft 377 kts 255°
2026-05-07 22:05 51.91721 11.34023 28261 ft 374 kts 255°
2026-05-07 22:05 51.91018 11.29987 27762 ft 371 kts 255°
2026-05-07 22:05 51.90338 11.26100 27276 ft 369 kts 255°
2026-05-07 22:05 51.89640 11.22112 26774 ft 367 kts 255°
2026-05-07 22:06 51.88949 11.18152 26309 ft 364 kts 255°
2026-05-07 22:06 51.88272 11.14274 25860 ft 362 kts 255°
2026-05-07 22:06 51.87588 11.10371 25417 ft 359 kts 255°
2026-05-07 22:06 51.86909 11.06501 24975 ft 357 kts 255°
2026-05-07 22:07 51.86232 11.02654 24543 ft 354 kts 255°
2026-05-07 22:07 51.85555 10.98831 24114 ft 352 kts 255°
2026-05-07 22:07 51.84881 10.95046 23697 ft 350 kts 255°
2026-05-07 22:07 51.84211 10.91278 23217 ft 347 kts 255°
2026-05-07 22:08 51.83545 10.87537 22742 ft 345 kts 255°
2026-05-07 22:08 51.82883 10.83824 22256 ft 343 kts 255°
2026-05-07 22:08 51.82227 10.80144 21251 ft 357 kts 255°
2026-05-07 22:08 51.81513 10.76149 20234 ft 371 kts 254°
2026-05-07 22:09 51.80786 10.72114 19563 ft 375 kts 254°
2026-05-07 22:09 51.80058 10.68083 19036 ft 373 kts 254°
2026-05-07 22:09 51.79334 10.64063 18534 ft 371 kts 254°
2026-05-07 22:09 51.78614 10.60070 17996 ft 369 kts 254°
2026-05-07 22:10 51.77898 10.56101 17477 ft 367 kts 254°
2026-05-07 22:10 51.77192 10.52214 16975 ft 364 kts 254°
2026-05-07 22:10 51.76480 10.48307 16493 ft 362 kts 254°
2026-05-07 22:10 51.75773 10.44421 16010 ft 360 kts 254°
2026-05-07 22:11 51.75069 10.40559 15556 ft 358 kts 254°
2026-05-07 22:11 51.74366 10.36720 15099 ft 355 kts 254°
2026-05-07 22:11 51.73668 10.32912 14653 ft 353 kts 254°
2026-05-07 22:11 51.72973 10.29118 14178 ft 351 kts 254°
2026-05-07 22:12 51.72283 10.25357 13716 ft 349 kts 254°
2026-05-07 22:12 51.71586 10.21578 12809 ft 357 kts 254°
2026-05-07 22:12 51.70858 10.17641 12134 ft 372 kts 253°
2026-05-07 22:12 51.70115 10.13628 11568 ft 374 kts 253°
2026-05-07 22:13 51.69400 10.09767 11039 ft 372 kts 253°
2026-05-07 22:13 51.68643 10.05688 10483 ft 370 kts 253°
2026-05-07 22:13 51.67905 10.01723 9944 ft 368 kts 253°
2026-05-07 22:13 51.67171 9.97781 9347 ft 367 kts 253°
2026-05-07 22:14 51.66436 9.93863 8766 ft 365 kts 253°
2026-05-07 22:14 51.65696 9.89930 8202 ft 374 kts 253°
2026-05-07 22:14 51.64933 9.85899 7642 ft 377 kts 253°
2026-05-07 22:14 51.64167 9.81858 7086 ft 376 kts 253°
2026-05-07 22:15 51.63415 9.77891 6560 ft 374 kts 253°
2026-05-07 22:15 51.62665 9.73906 5986 ft 370 kts 253°
2026-05-07 22:15 51.61922 9.69955 5443 ft 367 kts 253°
2026-05-07 22:15 51.61183 9.66043 5176 ft 365 kts 253°
2026-05-07 22:16 51.60443 9.62154 4938 ft 362 kts 253°
2026-05-07 22:16 51.59704 9.58292 4666 ft 360 kts 253°
2026-05-07 22:16 51.58967 9.54448 4395 ft 360 kts 253°
2026-05-07 22:16 51.58229 9.50606 4140 ft 359 kts 253°
2026-05-07 22:17 51.57490 9.46773 3982 ft 358 kts 252°
2026-05-07 22:17 51.56786 9.43129 4002 ft 333 kts 252°
2026-05-07 22:17 51.56169 9.39917 4005 ft 312 kts 253°
2026-05-07 22:17 51.55532 9.36605 3990 ft 291 kts 252°
2026-05-07 22:18 51.54951 9.33597 3996 ft 272 kts 252°
2026-05-07 22:18 51.53900 9.28169 3993 ft 237 kts 252°
2026-05-07 22:18 51.53417 9.25684 3994 ft 231 kts 252°
2026-05-07 22:19 51.52938 9.23228 3995 ft 231 kts 252°
2026-05-07 22:19 51.52456 9.20762 3996 ft 231 kts 252°
2026-05-07 22:19 51.51974 9.18304 3995 ft 231 kts 252°
2026-05-07 22:19 51.51490 9.15842 3995 ft 232 kts 252°
2026-05-07 22:20 51.50801 9.13607 3995 ft 221 kts 228°
2026-05-07 22:20 51.49596 9.12231 3968 ft 210 kts 199°
2026-05-07 22:20 51.48186 9.11946 3848 ft 203 kts 170°
2026-05-07 22:20 51.46815 9.12414 3721 ft 201 kts 166°
2026-05-07 22:21 51.45473 9.13005 3591 ft 199 kts 154°
2026-05-07 22:21 51.44331 9.14225 3468 ft 198 kts 133°
2026-05-07 22:21 51.43539 9.15997 3342 ft 195 kts 112°
2026-05-07 22:21 51.43192 9.18076 3254 ft 194 kts 94°
2026-05-07 22:22 51.43079 9.20218 3068 ft 191 kts 93°
2026-05-07 22:22 51.42975 9.22280 2826 ft 185 kts 94°
2026-05-07 22:22 51.42872 9.24270 2579 ft 172 kts 94°
2026-05-07 22:22 51.42778 9.26054 2369 ft 151 kts 94°
2026-05-07 22:23 51.42694 9.27667 2118 ft 140 kts 94°
2026-05-07 22:23 51.42611 9.29208 1933 ft 138 kts 94°
2026-05-07 22:23 51.42529 9.30756 1745 ft 141 kts 94°
2026-05-07 22:23 51.42447 9.32322 1538 ft 141 kts 94°
2026-05-07 22:24 51.42363 9.33892 1343 ft 141 kts 94°
2026-05-07 22:24 51.42282 9.35453 1155 ft 140 kts 94°
2026-05-07 22:24 51.42200 9.36987 974 ft 139 kts 93°
2026-05-07 22:24 51.42120 9.38500 864 ft 126 kts 94°
2026-05-07 22:25 51.42061 9.39580 864 ft 54 kts 95°
2026-05-07 22:25 51.42016 9.40009 858 ft 35 kts 111°
2026-05-07 22:25 51.41916 9.40250 861 ft 19 kts 157°
2026-05-07 22:25 51.41871 9.40121 864 ft 15 kts 275°
2026-05-07 22:26 51.41880 9.39954 864 ft 15 kts 275°
2026-05-07 22:26 51.41889 9.39791 864 ft 14 kts 275°
2026-05-07 22:26 51.41898 9.39638 853 ft 13 kts 275°
2026-05-07 22:26 51.41905 9.39497 864 ft 12 kts 274°
2026-05-07 22:27 51.41911 9.39373 861 ft 10 kts 274°
2026-05-07 22:27 51.41917 9.39264 864 ft 11 kts 275°
2026-05-07 22:27 51.41928 9.39066 864 ft 23 kts 275°
2026-05-07 22:27 51.41928 9.38890 861 ft 10 kts 238°
2026-05-07 22:28 51.41867 9.38855 847 ft 9 kts 184°
2026-05-07 22:28 51.41811 9.38850 864 ft 7 kts 183°
2026-05-07 22:28 51.41764 9.38842 861 ft 6 kts 186°
2026-05-07 22:28 51.41727 9.38837 860 ft 5 kts 184°
2026-05-07 22:29 51.41697 9.38832 864 ft 4 kts 188°
2026-05-07 22:29 51.41691 9.38812 854 ft 1 kts 263°
2026-05-07 22:29 51.41695 9.38799 851 ft 1 kts 289°
2026-05-07 22:29 51.41696 9.38787 864 ft 2 kts 280°
2026-05-07 22:30 51.41698 9.38768 858 ft 0 kts 277°